STARLINK-1087 (44965 NORAD) Tracking and Keplerian Element Data

This shows tracking and keplerian element data for the satellite.

Feedback or suggestion? Click here.




ElementValue
Catalog44965
NameSTARLINK-1087
Epoch Orbit728
Epoch Day48.58334491
Epoch Year2020
RAAN190.4211
Inclination52.9955
Eccentricity0.0001507
Argument of Perigee32.5719
Mean Anonmoly286.0409
Mean Motion15.73231924
Decay Rate-0.00014769
L11 44965U 20001BD 20048.58334491 -.00014769 00000-0 -10082-3 0 9995
L22 44965 52.9955 190.4211 0001507 32.5719 286.0409 15.73231924 7286

Live tracking and technical data element details for STARLINK-1087 (NORAD 44965). STARLINK-1087 can be tracked NOW for your location showing map with azimuth and elevation plus other details from your city location.

Track the satellite on the map from your city or location and see movement details for azimuth, elevation, latitude, longitude, range, height, and movement on the map or in text.







IsCatalogInMostPopularTable: catalog: 44965, numindb: 9
Update: records affected: 1



GetName: 44965 STARLINK-1087

Hit Count: updated at: Tue, 18 Feb 2020 01:39:44 GMT